TVS2DE LDSP-LKPR

Flight info

Callsign TVS2DE
Flight time 1h 10m
Altitude 34000
Route SIRMI DCT PETOV DCT NAVTI DCT BODAL DCT VLM
Aircraft B738/M-SDFGHIJ1LORVWXYZ/LB1

Departure

Time 2026-05-07 13:49
Airport Split Saint Jerome Airport (LDSP)

Arrival

Time 2026-05-07 14:59
Airport Václav Havel Airport Prague (LKPR)
Time Latitude Longitude Altitude Speed Heading
2026-05-07 13:19 43.53729 16.29873 64 ft 0 kts 115°
2026-05-07 13:43 43.53729 16.29874 67 ft 1 kts 110°
2026-05-07 13:44 43.53737 16.29887 61 ft 2 kts 33°
2026-05-07 13:44 43.53749 16.29874 67 ft 3 kts 296°
2026-05-07 13:44 43.53754 16.29810 67 ft 11 kts 266°
2026-05-07 13:44 43.53703 16.29695 67 ft 17 kts 233°
2026-05-07 13:45 43.53668 16.29607 64 ft 4 kts 277°
2026-05-07 13:45 43.53687 16.29572 64 ft 5 kts 313°
2026-05-07 13:45 43.53699 16.29531 74 ft 5 kts 279°
2026-05-07 13:45 43.53695 16.29465 76 ft 11 kts 258°
2026-05-07 13:46 43.53641 16.29337 80 ft 20 kts 233°
2026-05-07 13:46 43.53538 16.29153 72 ft 28 kts 232°
2026-05-07 13:46 43.53430 16.28959 79 ft 24 kts 233°
2026-05-07 13:46 43.53332 16.28781 84 ft 23 kts 233°
2026-05-07 13:47 43.53254 16.28643 74 ft 13 kts 231°
2026-05-07 13:47 43.53202 16.28610 72 ft 3 kts 216°
2026-05-07 13:47 43.53202 16.28607 69 ft 1 kts 242°
2026-05-07 13:47 43.53214 16.28592 75 ft 5 kts 330°
2026-05-07 13:48 43.53236 16.28606 71 ft 6 kts 44°
2026-05-07 13:48 43.53245 16.28623 75 ft 0 kts 52°
2026-05-07 13:48 43.53250 16.28631 75 ft 12 kts 52°
2026-05-07 13:48 43.53458 16.29006 79 ft 86 kts 52°
2026-05-07 13:49 43.53965 16.29914 68 ft 150 kts 50°
2026-05-07 13:49 43.54652 16.31207 545 ft 167 kts 56°
2026-05-07 13:49 43.55102 16.32684 1400 ft 177 kts 86°
2026-05-07 13:49 43.54929 16.34379 2180 ft 176 kts 121°
2026-05-07 13:50 43.54197 16.35550 3363 ft 154 kts 146°
2026-05-07 13:50 43.53596 16.36104 3828 ft 164 kts 151°
2026-05-07 13:50 43.52190 16.37158 4736 ft 177 kts 154°
2026-05-07 13:50 43.51473 16.37686 5006 ft 178 kts 154°
2026-05-07 13:51 43.50338 16.38528 5462 ft 190 kts 154°
2026-05-07 13:51 43.49112 16.39438 5543 ft 207 kts 154°
2026-05-07 13:51 43.47831 16.40395 6163 ft 207 kts 153°
2026-05-07 13:51 43.46530 16.41026 6988 ft 194 kts 181°
2026-05-07 13:52 43.45280 16.40494 7612 ft 191 kts 218°
2026-05-07 13:52 43.44366 16.39174 8238 ft 192 kts 231°
2026-05-07 13:52 43.43552 16.37721 8851 ft 191 kts 233°
2026-05-07 13:52 43.42822 16.36233 9547 ft 187 kts 249°
2026-05-07 13:53 43.42664 16.34464 10113 ft 190 kts 277°
2026-05-07 13:53 43.43242 16.32744 10341 ft 214 kts 309°
2026-05-07 13:53 43.44613 16.31690 10500 ft 243 kts 343°
2026-05-07 13:53 43.46314 16.31261 10944 ft 252 kts 346°
2026-05-07 13:54 43.48048 16.30841 11576 ft 253 kts 345°
2026-05-07 13:54 43.49798 16.30428 12194 ft 261 kts 349°
2026-05-07 13:54 43.51720 16.30297 12344 ft 285 kts 357°
2026-05-07 13:54 43.53782 16.30341 12557 ft 310 kts 358°
2026-05-07 13:55 43.56018 16.30400 12755 ft 334 kts 358°
2026-05-07 13:55 43.58421 16.30435 13025 ft 355 kts 357°
2026-05-07 13:55 43.60925 16.30446 13572 ft 365 kts 357°
2026-05-07 13:55 43.63478 16.30445 14317 ft 367 kts 357°
2026-05-07 13:56 43.66008 16.30442 15053 ft 369 kts 357°
2026-05-07 13:56 43.68593 16.30438 15724 ft 374 kts 356°
2026-05-07 13:56 43.71209 16.30435 16374 ft 378 kts 356°
2026-05-07 13:56 43.73858 16.30432 17010 ft 383 kts 356°
2026-05-07 13:57 43.76537 16.30429 17686 ft 387 kts 356°
2026-05-07 13:57 43.79247 16.30426 18321 ft 392 kts 356°
2026-05-07 13:57 43.81989 16.30424 18879 ft 396 kts 356°
2026-05-07 13:57 43.84760 16.30421 19400 ft 400 kts 356°
2026-05-07 13:58 43.87563 16.30419 19943 ft 405 kts 355°
2026-05-07 13:58 43.90398 16.30416 20471 ft 410 kts 355°
2026-05-07 13:58 43.93266 16.30413 20991 ft 414 kts 355°
2026-05-07 13:58 43.96171 16.30411 21530 ft 419 kts 355°
2026-05-07 13:59 43.99099 16.30409 22061 ft 423 kts 355°
2026-05-07 13:59 44.02061 16.30406 22559 ft 428 kts 355°
2026-05-07 13:59 44.05062 16.30404 23065 ft 433 kts 355°
2026-05-07 13:59 44.08090 16.30403 23559 ft 437 kts 355°
2026-05-07 14:00 44.11105 16.30401 23992 ft 441 kts 355°
2026-05-07 14:00 44.14177 16.30398 24474 ft 442 kts 355°
2026-05-07 14:00 44.17262 16.30264 24926 ft 442 kts 351°
2026-05-07 14:00 44.20329 16.29884 25360 ft 443 kts 349°
2026-05-07 14:01 44.23397 16.29393 25763 ft 445 kts 348°
2026-05-07 14:01 44.26486 16.28866 26149 ft 447 kts 348°
2026-05-07 14:01 44.29583 16.28346 26560 ft 449 kts 348°
2026-05-07 14:01 44.32699 16.27841 26939 ft 453 kts 348°
2026-05-07 14:02 44.35847 16.27349 27316 ft 456 kts 348°
2026-05-07 14:02 44.39011 16.26869 27705 ft 458 kts 348°
2026-05-07 14:02 44.42191 16.26395 28073 ft 460 kts 349°
2026-05-07 14:02 44.45351 16.25929 28408 ft 462 kts 349°
2026-05-07 14:03 44.48567 16.25454 28740 ft 466 kts 348°
2026-05-07 14:03 44.51804 16.24976 29089 ft 469 kts 348°
2026-05-07 14:03 44.55065 16.24495 29445 ft 472 kts 348°
2026-05-07 14:03 44.58335 16.24012 29799 ft 473 kts 348°
2026-05-07 14:04 44.61611 16.23528 30203 ft 473 kts 348°
2026-05-07 14:04 44.64889 16.23043 30619 ft 471 kts 348°
2026-05-07 14:04 44.68140 16.22562 31081 ft 468 kts 348°
2026-05-07 14:04 44.71373 16.22083 31566 ft 465 kts 348°
2026-05-07 14:05 44.74536 16.21614 32015 ft 462 kts 348°
2026-05-07 14:05 44.77745 16.21135 32406 ft 461 kts 348°
2026-05-07 14:05 44.80932 16.20658 32802 ft 460 kts 348°
2026-05-07 14:05 44.84108 16.20182 33215 ft 458 kts 348°
2026-05-07 14:06 44.87275 16.19707 33622 ft 456 kts 348°
2026-05-07 14:06 44.90428 16.19234 33986 ft 455 kts 348°
2026-05-07 14:06 44.93597 16.18756 34006 ft 460 kts 348°
2026-05-07 14:07 44.99978 16.17793 34009 ft 460 kts 348°
2026-05-07 14:07 45.06261 16.16851 34017 ft 454 kts 347°
2026-05-07 14:08 45.12564 16.15897 34016 ft 457 kts 347°
2026-05-07 14:08 45.18897 16.14935 34028 ft 459 kts 347°
2026-05-07 14:09 45.25279 16.13965 34014 ft 462 kts 347°
2026-05-07 14:09 45.31685 16.12992 34014 ft 464 kts 347°
2026-05-07 14:10 45.38109 16.12014 34005 ft 465 kts 347°
2026-05-07 14:10 45.44539 16.11033 34012 ft 465 kts 347°
2026-05-07 14:11 45.50933 16.10054 34000 ft 464 kts 347°
2026-05-07 14:11 45.57364 16.09068 34005 ft 464 kts 347°
2026-05-07 14:12 45.63789 16.08079 33997 ft 464 kts 347°
2026-05-07 14:12 45.70200 16.07091 33994 ft 463 kts 347°
2026-05-07 14:13 45.76569 16.06107 33999 ft 463 kts 347°
2026-05-07 14:13 45.82982 16.05113 33998 ft 463 kts 347°
2026-05-07 14:14 45.89398 16.04117 34004 ft 464 kts 347°
2026-05-07 14:14 45.95818 16.03118 34007 ft 465 kts 347°
2026-05-07 14:15 46.02262 16.02111 33988 ft 466 kts 347°
2026-05-07 14:15 46.08675 16.01109 33998 ft 466 kts 347°
2026-05-07 14:16 46.15138 16.00096 33996 ft 467 kts 347°
2026-05-07 14:16 46.21606 15.99080 33979 ft 468 kts 347°
2026-05-07 14:17 46.28087 15.98060 33974 ft 469 kts 347°
2026-05-07 14:17 46.34660 15.97727 33973 ft 477 kts 358°
2026-05-07 14:18 46.41311 15.98365 33955 ft 479 kts 359°
2026-05-07 14:18 46.47923 15.99061 33954 ft 480 kts 359°
2026-05-07 14:19 46.54589 15.99705 33944 ft 480 kts 359°
2026-05-07 14:19 46.61260 16.00310 33948 ft 480 kts 358°
2026-05-07 14:20 46.67931 16.00906 33946 ft 480 kts 359°
2026-05-07 14:20 46.74595 16.01504 33957 ft 480 kts 359°
2026-05-07 14:21 46.81271 16.02106 33943 ft 480 kts 359°
2026-05-07 14:21 46.87939 16.02711 33947 ft 480 kts 359°
2026-05-07 14:22 46.94603 16.03317 33939 ft 479 kts 359°
2026-05-07 14:22 47.01210 16.03919 33945 ft 478 kts 359°
2026-05-07 14:23 47.07854 16.04526 33941 ft 478 kts 359°
2026-05-07 14:23 47.14499 16.05134 33947 ft 477 kts 359°
2026-05-07 14:24 47.21124 16.05741 33945 ft 476 kts 359°
2026-05-07 14:24 47.27745 16.06350 33950 ft 476 kts 359°
2026-05-07 14:25 47.34321 16.06957 33954 ft 476 kts 359°
2026-05-07 14:25 47.40929 16.07567 33963 ft 476 kts 359°
2026-05-07 14:26 47.47550 16.08181 33970 ft 476 kts 359°
2026-05-07 14:26 47.54173 16.08796 33969 ft 477 kts 359°
2026-05-07 14:27 47.60782 16.09411 33967 ft 478 kts 360°
2026-05-07 14:27 47.67426 16.10032 33972 ft 478 kts 360°
2026-05-07 14:28 47.74087 16.10655 33970 ft 479 kts 360°
2026-05-07 14:28 47.80768 16.11282 33970 ft 481 kts 360°
2026-05-07 14:29 47.87431 16.11909 33958 ft 482 kts 360°
2026-05-07 14:29 47.94140 16.12542 33971 ft 484 kts 360°
2026-05-07 14:30 48.00864 16.13178 33971 ft 484 kts
2026-05-07 14:30 48.07601 16.13817 33964 ft 485 kts
2026-05-07 14:31 48.14345 16.14459 33963 ft 485 kts
2026-05-07 14:31 48.21072 16.15102 33954 ft 482 kts
2026-05-07 14:32 48.27699 16.15736 33956 ft 479 kts
2026-05-07 14:32 48.34304 16.16370 33946 ft 471 kts
2026-05-07 14:33 48.40820 16.16997 33960 ft 469 kts
2026-05-07 14:33 48.47340 16.17622 33471 ft 468 kts
2026-05-07 14:33 48.50569 16.17935 33069 ft 463 kts
2026-05-07 14:34 48.53773 16.18245 32668 ft 459 kts
2026-05-07 14:34 48.56948 16.18553 32253 ft 456 kts
2026-05-07 14:34 48.60105 16.18859 31841 ft 453 kts
2026-05-07 14:34 48.63244 16.19163 31431 ft 451 kts
2026-05-07 14:35 48.66374 16.19466 31036 ft 449 kts
2026-05-07 14:35 48.68440 16.19666 30773 ft 447 kts
2026-05-07 14:35 48.71545 16.19968 30371 ft 446 kts
2026-05-07 14:35 48.74637 16.20153 29936 ft 443 kts 354°
2026-05-07 14:36 48.77670 16.19668 29484 ft 435 kts 344°
2026-05-07 14:36 48.81477 16.18004 28877 ft 424 kts 333°
2026-05-07 14:36 48.83326 16.16900 28604 ft 422 kts 332°
2026-05-07 14:36 48.86038 16.15229 28183 ft 419 kts 332°
2026-05-07 14:37 48.88733 16.13555 27779 ft 416 kts 332°
2026-05-07 14:37 48.94064 16.10272 26986 ft 411 kts 332°
2026-05-07 14:37 48.96678 16.08679 26599 ft 409 kts 333°
2026-05-07 14:38 48.99316 16.07078 26194 ft 407 kts 333°
2026-05-07 14:38 49.01939 16.05488 25808 ft 405 kts 333°
2026-05-07 14:38 49.04550 16.03906 25403 ft 403 kts 333°
2026-05-07 14:38 49.07150 16.02329 25008 ft 401 kts 333°
2026-05-07 14:39 49.09745 16.00753 24606 ft 400 kts 333°
2026-05-07 14:39 49.12329 15.99182 24196 ft 399 kts 333°
2026-05-07 14:39 49.14908 15.97613 23793 ft 398 kts 333°
2026-05-07 14:39 49.17483 15.96044 23351 ft 398 kts 333°
2026-05-07 14:40 49.20046 15.94481 22914 ft 395 kts 333°
2026-05-07 14:40 49.22593 15.92926 22496 ft 392 kts 334°
2026-05-07 14:40 49.24891 15.91522 22135 ft 389 kts 334°
2026-05-07 14:40 49.27394 15.89991 21739 ft 386 kts 334°
2026-05-07 14:41 49.29879 15.88468 21355 ft 383 kts 334°
2026-05-07 14:41 49.32317 15.86973 20964 ft 380 kts 334°
2026-05-07 14:41 49.34761 15.85472 20584 ft 377 kts 334°
2026-05-07 14:41 49.37185 15.83982 20209 ft 374 kts 334°
2026-05-07 14:42 49.39589 15.82502 19827 ft 371 kts 334°
2026-05-07 14:42 49.41974 15.81034 19465 ft 368 kts 334°
2026-05-07 14:42 49.44310 15.79492 19092 ft 362 kts 327°
2026-05-07 14:42 49.46295 15.77218 18735 ft 352 kts 311°
2026-05-07 14:43 49.47812 15.74338 18367 ft 343 kts 296°
2026-05-07 14:43 49.48939 15.71132 17996 ft 339 kts 294°
2026-05-07 14:43 49.50009 15.67917 17584 ft 336 kts 293°
2026-05-07 14:43 49.51064 15.64721 17203 ft 334 kts 293°
2026-05-07 14:44 49.52111 15.61556 16843 ft 331 kts 293°
2026-05-07 14:44 49.53158 15.58412 16487 ft 328 kts 293°
2026-05-07 14:44 49.54199 15.55295 16135 ft 326 kts 293°
2026-05-07 14:44 49.55236 15.52200 15776 ft 324 kts 293°
2026-05-07 14:45 49.56266 15.49127 15432 ft 321 kts 293°
2026-05-07 14:45 49.57276 15.46117 15091 ft 319 kts 293°
2026-05-07 14:45 49.58291 15.43089 14759 ft 317 kts 293°
2026-05-07 14:45 49.59302 15.40070 14413 ft 315 kts 293°
2026-05-07 14:46 49.60306 15.37067 14071 ft 314 kts 293°
2026-05-07 14:46 49.61305 15.34080 13721 ft 313 kts 293°
2026-05-07 14:46 49.62299 15.31101 13349 ft 311 kts 293°
2026-05-07 14:46 49.63288 15.28135 12974 ft 310 kts 293°
2026-05-07 14:47 49.64271 15.25184 12638 ft 308 kts 293°
2026-05-07 14:47 49.65246 15.22252 12281 ft 306 kts 294°
2026-05-07 14:47 49.66201 15.19380 11949 ft 304 kts 294°
2026-05-07 14:47 49.67161 15.16489 11621 ft 302 kts 294°
2026-05-07 14:48 49.68115 15.13613 11282 ft 300 kts 294°
2026-05-07 14:48 49.69061 15.10756 10952 ft 298 kts 294°
2026-05-07 14:48 49.69999 15.07921 10625 ft 296 kts 294°
2026-05-07 14:48 49.71040 15.05167 10283 ft 295 kts 302°
2026-05-07 14:49 49.72263 15.02714 10094 ft 282 kts 306°
2026-05-07 14:49 49.73475 15.00416 9943 ft 270 kts 306°
2026-05-07 14:49 49.74648 14.98171 9647 ft 267 kts 305°
2026-05-07 14:49 49.75802 14.95922 9368 ft 267 kts 304°
2026-05-07 14:50 49.76944 14.93662 9091 ft 266 kts 304°
2026-05-07 14:50 49.78080 14.91399 8815 ft 265 kts 304°
2026-05-07 14:50 49.79197 14.89169 8545 ft 265 kts 304°
2026-05-07 14:50 49.80320 14.86913 8265 ft 264 kts 304°
2026-05-07 14:51 49.81436 14.84654 7999 ft 264 kts 304°
2026-05-07 14:51 49.82549 14.82395 7720 ft 264 kts 304°
2026-05-07 14:51 49.83661 14.80139 7452 ft 263 kts 304°
2026-05-07 14:51 49.84770 14.77887 7176 ft 263 kts 304°
2026-05-07 14:52 49.85872 14.75646 6904 ft 262 kts 304°
2026-05-07 14:52 49.86985 14.73385 6621 ft 263 kts 304°
2026-05-07 14:52 49.88094 14.71129 6356 ft 263 kts 304°
2026-05-07 14:52 49.89192 14.68899 6209 ft 256 kts 304°
2026-05-07 14:53 49.90246 14.66757 6094 ft 250 kts 304°
2026-05-07 14:53 49.91288 14.64638 5988 ft 241 kts 304°
2026-05-07 14:53 49.92280 14.62622 5893 ft 229 kts 304°
2026-05-07 14:53 49.93225 14.60698 5807 ft 220 kts 303°
2026-05-07 14:54 49.94144 14.58823 5618 ft 217 kts 303°
2026-05-07 14:54 49.95054 14.56965 5406 ft 216 kts 303°
2026-05-07 14:54 49.95960 14.55107 5183 ft 215 kts 303°
2026-05-07 14:54 49.96863 14.53253 4950 ft 215 kts 304°
2026-05-07 14:55 49.97753 14.51449 4725 ft 209 kts 304°
2026-05-07 14:55 49.98620 14.49683 4489 ft 198 kts 304°
2026-05-07 14:55 49.99442 14.48062 4378 ft 186 kts 305°
2026-05-07 14:55 50.00238 14.46477 4162 ft 185 kts 303°
2026-05-07 14:56 50.01006 14.44894 3913 ft 181 kts 303°
2026-05-07 14:56 50.01752 14.43343 3682 ft 177 kts 303°
2026-05-07 14:56 50.02481 14.41826 3455 ft 173 kts 303°
2026-05-07 14:56 50.03194 14.40339 3225 ft 170 kts 303°
2026-05-07 14:57 50.03888 14.38895 2993 ft 162 kts 303°
2026-05-07 14:57 50.04541 14.37538 2796 ft 153 kts 303°
2026-05-07 14:57 50.05165 14.36236 2624 ft 147 kts 303°
2026-05-07 14:57 50.05780 14.34957 2401 ft 145 kts 303°
2026-05-07 14:58 50.06384 14.33701 2184 ft 143 kts 302°
2026-05-07 14:58 50.06963 14.32483 1971 ft 138 kts 303°
2026-05-07 14:58 50.07558 14.31260 1803 ft 146 kts 303°
2026-05-07 14:58 50.08171 14.29990 1585 ft 148 kts 302°
2026-05-07 14:59 50.08776 14.28720 1368 ft 148 kts 302°
2026-05-07 14:59 50.09392 14.27453 1215 ft 141 kts 302°
2026-05-07 14:59 50.09916 14.26360 1198 ft 109 kts 307°
2026-05-07 14:59 50.10178 14.25823 1187 ft 34 kts 310°
2026-05-07 15:00 50.10261 14.25714 1186 ft 8 kts 326°
2026-05-07 15:00 50.10312 14.25676 1185 ft 9 kts 340°
2026-05-07 15:00 50.10377 14.25658 1183 ft 10 kts 356°
2026-05-07 15:00 50.10458 14.25668 1177 ft 13 kts 20°
2026-05-07 15:01 50.10487 14.25746 1179 ft 9 kts 83°
2026-05-07 15:01 50.10502 14.25874 1175 ft 15 kts 78°
2026-05-07 15:01 50.10523 14.26039 1172 ft 14 kts 79°
2026-05-07 15:01 50.10540 14.26176 1173 ft 12 kts 84°
2026-05-07 15:02 50.10514 14.26293 1171 ft 11 kts 123°
2026-05-07 15:02 50.10470 14.26393 1173 ft 11 kts 124°
2026-05-07 15:02 50.10432 14.26480 1169 ft 9 kts 125°
2026-05-07 15:02 50.10409 14.26536 1170 ft 3 kts 106°
2026-05-07 15:03 50.10413 14.26553 1171 ft 2 kts 60°
2026-05-07 15:03 50.10427 14.26574 1172 ft 2 kts 36°
2026-05-07 15:03 50.10434 14.26581 1171 ft 2 kts 36°
2026-05-07 15:03 50.10435 14.26583 1171 ft 0 kts 36°